KO4WIL-13 Weather Reports


time (UTC)temp
C
wind
direction
speed
KPH
gust
KPH
rain 1hr
cm
rain 24hr
cm
rain mn
cm
humidity
%
barometer
mb
20260503224631 17 229 1.6 3.2 0.00 0.00 0.00 42 968.5
20260503224129 17 228 1.6 1.6 0.00 0.00 0.00 40 968.5
20260503223627 17 229 0.0 1.6 0.00 0.00 0.00 41 968.6
20260503223125 17 228 0.0 1.6 0.00 0.00 0.00 41 968.7
20260503222623 17 229 1.6 3.2 0.00 0.00 0.00 41 968.7
20260503222121 16 229 1.6 3.2 0.00 0.00 0.00 42 968.8
20260503221619 16 229 1.6 3.2 0.00 0.00 0.00 40 968.8
20260503221117 16 230 1.6 3.2 0.00 0.00 0.00 42 968.8
20260503220614 16 229 3.2 3.2 0.00 0.00 0.00 41 968.8
20260503220113 16 229 3.2 3.2 0.00 0.00 0.00 41 968.9
20260503215611 16 234 3.2 4.8 0.00 0.00 0.00 41 968.8
20260503215109 16 229 1.6 3.2 0.00 0.00 0.00 41 968.9
20260503214607 16 229 3.2 4.8 0.00 0.00 0.00 40 969.0
20260503214105 16 229 1.6 3.2 0.00 0.00 0.00 41 969.0
20260503213602 16 228 3.2 4.8 0.00 0.00 0.00 41 969.1
20260503213100 16 228 1.6 4.8 0.00 0.00 0.00 41 969.1
20260503212559 16 232 3.2 3.2 0.00 0.00 0.00 41 969.1
20260503212057 16 228 1.6 3.2 0.00 0.00 0.00 40 969.2
20260503211554 15 229 3.2 4.8 0.00 0.00 0.00 40 969.3
20260503211052 16 230 3.2 4.8 0.00 0.00 0.00 41 969.2
20260503210550 16 230 3.2 3.2 0.00 0.00 0.00 42 969.3
20260503210048 16 228 1.6 3.2 0.00 0.00 0.00 40 969.3
20260503205546 16 228 3.2 4.8 0.00 0.00 0.00 39 969.4
20260503205044 15 230 1.6 3.2 0.00 0.00 0.00 39 969.4
20260503204542 15 231 3.2 4.8 0.00 0.00 0.00 41 969.5
20260503204040 15 230 3.2 3.2 0.00 0.00 0.00 42 969.5
20260503203538 15 229 3.2 4.8 0.00 0.00 0.00 41 969.6
20260503203036 15 231 1.6 1.6 0.00 0.00 0.00 42 969.8
20260503202534 15 231 3.2 3.2 0.00 0.00 0.00 40 969.9
20260503202032 15 232 3.2 4.8 0.00 0.00 0.00 41 970.0
20260503201530 16 228 3.2 4.8 0.00 0.00 0.00 41 970.0
20260503201028 16 228 0.0 1.6 0.00 0.00 0.00 43 970.1
20260503200525 15 229 1.6 4.8 0.00 0.00 0.00 44 970.2
20260503200024 15 231 1.6 3.2 0.00 0.00 0.00 44 970.3
20260503195521 15 229 1.6 8.0 0.00 0.00 0.00 44 970.4
20260503195019 15 231 1.6 3.2 0.00 0.00 0.00 44 970.5
20260503194517 15 234 1.6 3.2 0.00 0.00 0.00 44 970.4
20260503194015 15 232 3.2 6.4 0.00 0.00 0.00 42 970.6
20260503193513 15 234 3.2 3.2 0.00 0.00 0.00 44 970.5
20260503193011 15 232 4.8 8.0 0.00 0.00 0.00 44 970.6
20260503192509 15 230 3.2 4.8 0.00 0.00 0.00 45 970.7
20260503192006 15 230 3.2 3.2 0.00 0.00 0.00 44 970.8
20260503191504 15 229 3.2 4.8 0.00 0.00 0.00 44 970.9
20260503191002 15 227 0.0 1.6 0.00 0.00 0.00 46 970.9
20260503190457 14 263 1.6 3.2 0.00 0.00 0.00 42 971.0
20260503185955 14 252 3.2 4.8 0.00 0.00 0.00 43 971.0
20260503185453 15 229 0.0 1.6 0.00 0.00 0.00 47 971.0
20260503184951 14 224 0.0 3.2 0.00 0.00 0.00 50 971.1
20260503184449 14 120 1.6 4.8 0.00 0.00 0.00 44 971.2
20260503183946 13 187 1.6 4.8 0.00 0.00 0.00 48 971.2
20260503183444 13 216 3.2 4.8 0.00 0.00 0.00 44 971.2
20260503182942 14 326 1.6 3.2 0.00 0.00 0.00 48 971.3
20260503182441 13 197 0.0 1.6 0.00 0.00 0.00 46 971.4
20260503181938 13 246 1.6 4.8 0.00 0.00 0.00 44 971.5
20260503181436 13 208 1.6 3.2 0.00 0.00 0.00 49 971.5
20260503180934 13 283 3.2 3.2 0.00 0.00 0.00 43 971.5
20260503180432 13 128 1.6 4.8 0.00 0.00 0.00 49 971.5
20260503175930 13 43 1.6 3.2 0.00 0.00 0.00 50 971.6
20260503175428 13 24 3.2 4.8 0.00 0.00 0.00 46 971.7
20260503174926 13 49 1.6 3.2 0.00 0.00 0.00 48 971.7
20260503174424 13 77 3.2 4.8 0.00 0.00 0.00 47 971.7
20260503173922 12 137 3.2 3.2 0.00 0.00 0.00 49 971.8
20260503173420 12 125 3.2 4.8 0.00 0.00 0.00 50 971.9
20260503172917 13 114 1.6 3.2 0.00 0.00 0.00 51 972.0
20260503172415 13 91 3.2 4.8 0.00 0.00 0.00 51 972.0
20260503171913 12 227 1.6 3.2 0.00 0.00 0.00 51 972.0
20260503171411 12 56 1.6 6.4 0.00 0.00 0.00 50 972.1
20260503170909 12 275 0.0 1.6 0.00 0.00 0.00 51 972.2
20260503170407 12 165 3.2 4.8 0.00 0.00 0.00 51 972.2
20260503150820 11 136 0.0 1.6 0.00 0.00 0.00 48 973.1
20260503150318 11 37 0.0 1.6 0.00 0.00 0.00 49 973.1
20260503140254 10 227 0.0 1.6 0.00 0.00 0.00 52 972.9
20260503131232 9 155 1.6 4.8 0.00 0.00 0.00 52 972.7
20260503130731 9 155 1.6 3.2 0.00 0.00 0.00 56 972.7
20260503130229 8 135 1.6 4.8 0.00 0.00 0.00 55 972.7
20260503120204 8 322 0.0 0.0 0.00 0.00 0.00 69 972.2
20260503110642 5 336 0.0 0.0 0.00 0.00 0.00 78 971.6
20260503110140 5 51 0.0 0.0 0.00 0.00 0.00 77 971.5
20260503100116 3 0 0.0 0.0 0.00 0.00 0.00 83 970.9
20260503081534 6 31 0.0 0.0 0.00 0.00 0.00 74 970.4
20260503081033 5 333 0.0 1.6 0.00 0.00 0.00 74 970.3
20260503080531 5 291 0.0 0.0 0.00 0.00 0.00 76 970.3
20260503072515 6 141 0.0 0.0 0.00 0.00 0.00 74 970.1
20260503072013 6 134 0.0 0.0 0.00 0.00 0.00 72 970.1
20260503071511 6 90 0.0 0.0 0.00 0.00 0.00 72 969.9
20260503071009 6 12 0.0 0.0 0.00 0.00 0.00 71 969.8
20260503070507 6 11 0.0 0.0 0.00 0.00 0.00 73 969.8
20260503054936 8 54 0.0 1.6 0.00 0.00 0.00 65 969.6
20260503054434 8 5 0.0 3.2 0.00 0.00 0.00 65 969.7
20260503053932 8 351 0.0 0.0 0.00 0.00 0.00 66 969.7
20260503053430 8 38 0.0 1.6 0.00 0.00 0.00 65 969.6
20260503052927 8 44 0.0 0.0 0.00 0.00 0.00 64 969.6
20260503052426 8 44 0.0 0.0 0.00 0.00 0.00 65 969.6
20260503051924 8 41 0.0 1.6 0.00 0.00 0.00 63 969.6
20260503051422 8 44 0.0 0.0 0.00 0.00 0.00 65 969.6
20260503050920 8 44 0.0 0.0 0.00 0.00 0.00 66 969.6
20260503050418 8 44 0.0 0.0 0.00 0.00 0.00 65 969.6
20260503045916 8 44 0.0 0.0 0.00 0.00 0.00 65 969.6
20260503045414 8 43 0.0 0.0 0.00 0.00 0.00 66 969.5
20260503044912 8 42 0.0 0.0 0.00 0.00 0.00 65 969.5
20260503044410 8 44 0.0 0.0 0.00 0.00 0.00 65 969.5
20260503043908 8 42 0.0 0.0 0.00 0.00 0.00 63 969.4
20260503043407 8 43 0.0 0.0 0.00 0.00 0.00 64 969.4
20260503042904 8 36 1.6 1.6 0.00 0.00 0.00 63 969.3
20260503042402 8 44 0.0 0.0 0.00 0.00 0.00 67 969.4
20260503041900 8 42 0.0 0.0 0.00 0.00 0.00 65 969.3
20260503041359 8 37 0.0 0.0 0.00 0.00 0.00 66 969.3
20260503040857 8 37 0.0 1.6 0.00 0.00 0.00 65 969.2
20260503040354 8 42 0.0 0.0 0.00 0.00 0.00 66 969.2
20260503035853 8 38 0.0 0.0 0.00 0.00 0.00 64 969.1
20260503035350 8 44 0.0 0.0 0.00 0.00 0.00 65 969.2
20260503034847 9 43 0.0 0.0 0.00 0.00 0.00 63 969.1
20260503034345 9 44 0.0 0.0 0.00 0.00 0.00 63 969.1
20260503033843 9 43 0.0 0.0 0.00 0.00 0.00 63 969.1
20260503033341 9 38 0.0 0.0 0.00 0.00 0.00 63 969.1
20260503032839 9 43 0.0 0.0 0.00 0.00 0.00 62 969.1
20260503032337 9 39 0.0 0.0 0.00 0.00 0.00 62 969.1
20260503031835 9 26 0.0 1.6 0.00 0.00 0.00 61 969.1
20260503031333 9 39 0.0 1.6 0.00 0.00 0.00 62 969.1
20260503030831 9 27 0.0 1.6 0.00 0.00 0.00 62 969.1
20260503030329 9 43 0.0 0.0 0.00 0.00 0.00 64 969.0
20260503025827 9 43 0.0 0.0 0.00 0.00 0.00 63 969.0
20260503025325 9 42 0.0 0.0 0.00 0.00 0.00 65 969.0
20260503024823 9 41 0.0 0.0 0.00 0.00 0.00 63 969.0
20260503024320 9 42 0.0 0.0 0.00 0.00 0.00 62 968.9
20260503023818 10 42 0.0 0.0 0.00 0.00 0.00 62 968.8
20260503023316 10 40 0.0 0.0 0.00 0.00 0.00 63 968.8
20260503022814 9 37 0.0 1.6 0.00 0.00 0.00 61 968.7
20260503022312 9 39 0.0 3.2 0.00 0.00 0.00 62 968.7
20260503021810 9 46 0.0 3.2 0.00 0.00 0.00 62 968.6
20260503021308 9 43 0.0 0.0 0.00 0.00 0.00 61 968.6
20260503020806 9 42 0.0 0.0 0.00 0.00 0.00 61 968.7
20260503020304 9 37 0.0 0.0 0.00 0.00 0.00 61 968.6
20260503015802 9 35 0.0 1.6 0.00 0.00 0.00 62 968.6
20260503015300 9 354 0.0 0.0 0.00 0.00 0.00 63 968.6
20260503014758 9 254 0.0 0.0 0.00 0.00 0.00 61 968.5
20260503014256 10 286 0.0 1.6 0.00 0.00 0.00 62 968.4
20260503013754 10 0 0.0 1.6 0.00 0.00 0.00 60 968.3
20260503013252 10 336 0.0 0.0 0.00 0.00 0.00 60 968.2
20260503012750 10 294 0.0 1.6 0.00 0.00 0.00 59 968.2
20260503012248 10 48 0.0 0.0 0.00 0.00 0.00 59 968.2
20260503011745 10 43 0.0 0.0 0.00 0.00 0.00 58 968.2
20260503011244 10 37 0.0 1.6 0.00 0.00 0.00 58 968.1
20260503010742 10 38 0.0 1.6 0.00 0.00 0.00 59 968.1
20260503010240 10 40 0.0 1.6 0.00 0.00 0.00 59 968.0
20260503005737 10 38 0.0 1.6 0.00 0.00 0.00 58 967.9
20260503005235 10 36 0.0 1.6 0.00 0.00 0.00 58 967.8
20260503004733 10 40 0.0 0.0 0.00 0.00 0.00 58 967.8
20260503004231 10 36 0.0 0.0 0.00 0.00 0.00 58 967.7
20260503003729 10 41 0.0 1.6 0.00 0.00 0.00 57 967.6
20260503003227 11 255 0.0 1.6 0.00 0.00 0.00 56 967.6
20260503002725 11 300 0.0 0.0 0.00 0.00 0.00 56 967.5
20260503002223 11 294 0.0 0.0 0.00 0.00 0.00 55 967.5
20260503001721 11 304 0.0 0.0 0.00 0.00 0.00 55 967.4
20260503001219 11 302 0.0 1.6 0.00 0.00 0.00 54 967.4
20260503000717 12 339 0.0 0.0 0.00 0.00 0.00 55 967.4
20260503000215 12 285 0.0 0.0 0.00 0.00 0.00 53 967.3
20260502235713 12 352 0.0 1.6 0.00 0.00 0.00 54 967.3
20260502235211 13 351 0.0 1.6 0.00 0.00 0.00 50 967.2
20260502234709 13 312 0.0 1.6 0.00 0.00 0.00 49 967.1
20260502234207 13 342 0.0 0.0 0.00 0.00 0.00 50 967.1
20260502233705 13 314 0.0 0.0 0.00 0.00 0.00 51 967.0
20260502233203 13 306 0.0 1.6 0.00 0.00 0.00 50 967.0
20260502232701 13 301 1.6 3.2 0.00 0.00 0.00 49 967.0
20260502232159 13 332 0.0 1.6 0.00 0.00 0.00 49 967.0
20260502231657 13 266 0.0 1.6 0.00 0.00 0.00 49 967.0
20260502231155 13 334 1.6 1.6 0.00 0.00 0.00 48 966.9
20260502230653 13 322 0.0 1.6 0.00 0.00 0.00 49 966.9
20260502230151 13 316 0.0 1.6 0.00 0.00 0.00 49 966.9
20260502225649 13 320 0.0 1.6 0.00 0.00 0.00 48 966.9
20260502225146 13 339 0.0 1.6 0.00 0.00 0.00 47 967.0